Regional Weather Roundup
Issued by NWS Kansas City/Pleasant Hill, MO

Home | Current Version | Previous Version | Text Only | Print | Product List | Glossary On
Versions: 1 2 3 4 5 6 7 8 9 10 11 12 13 14 15 16 17 18 19 20 21 22 23 24 25 26 27 28 29 30 31 32 33 34 35 36 37 38 39 40 41 42 43 44 45 46 47 48 49 50
000
ASUS43 KEAX 161310
RWREAX

WEATHER ROUNDUP FOR EASTERN KANSAS AND NORTHWEST MISSOURI
NATIONAL WEATHER SERVICE KANSAS CITY/PLEASANT HILL MO
700 AM CST SAT DEC 16 2017

KSZ040-057-103>105-MOZ028-029-037-043-161400-
...KANSAS CITY METROPOLITAN AREA...

CITY           SKY/WX    TMP DP  RH WIND       PRES   REMARKS
K.C. INTL      CLEAR     35  24  64 S13       29.85S WCI  26
K.C. DOWNTOWN  CLEAR     39  24  55 SW9       29.87S WCI  33
LEES SUMMIT    CLEAR     39  25  57 SW18      29.88R WCI  30
OLATHE - IXD   CLEAR     36  24  62 S10       29.88S WCI  28
OLATHE - OJC   CLEAR     32  24  72 S8        29.88S WCI  25
LAWRENCE       CLOUDY    33  24  69 E7        29.87S WCI  27

$$

MOZ001>008-011>017-020>025-030>033-038>040-044>046-053-054-161400-
...NORTHERN AND CENTRAL MISSOURI...

CITY           SKY/WX    TMP DP  RH WIND       PRES   REMARKS
ST. JOSEPH     CLEAR     35  26  69 S8        29.83  WCI  29
MOSBY          SUNNY     37  25  60 S7        29.87S WCI  32
WARRENSBURG    CLEAR     34  25  69 S7        29.91S WCI  28
WHITEMAN AFB   CLEAR     37  24  57 SW18      29.87S WCI  27
CLINTON        CLEAR     34  25  69 S8        29.96R WCI  27
SEDALIA        CLEAR     41  26  55 SW18      29.93R WCI  32
WARSAW         NOT AVBL
CHILLICOTHE      N/A     34  24  67 S10       29.86R WCI  26
KIRKSVILLE     CLEAR     36  27  69 SW13      29.85R WCI  27

$$

MOZ041-047>049-056>058-063>065-088>090-097-161400-
...EASTERN AND SOUTHERN MISSOURI...

CITY           SKY/WX    TMP DP  RH WIND       PRES   REMARKS
ST. LOUIS INTL PTCLDY    38  26  62 SW15      29.98R WCI  29
SPIRIT OF STL  CLEAR     39  25  57 SW12G18   29.98R WCI  32
COLUMBIA       CLEAR     34  24  67 SW12      29.94R WCI  25
JEFFERSON CITY CLEAR     38  24  57 VRB5      29.97R WCI  34
ROLLA          CLEAR     34  25  69 S17       29.98S WCI  23
OSAGE BEACH    CLEAR     38  24  57 S9        29.99R WCI  31
SPRINGFIELD    CLOUDY    33  25  72 S14       30.01R WCI  23
BRANSON        PTCLDY    39  23  52 CALM      30.06S
JOPLIN         CLEAR     40  25  55 S17       30.00R WCI  31
WEST PLAINS    CLOUDY    30  25  81 SW5       30.09R WCI  25

$$

IAZ060-094-KSZ022-034>040-054-083-096-NEZ052-066-093-161400-
...KANSAS...SOUTHEAST NEBRASKA AND IOWA...

CITY           SKY/WX    TMP DP  RH WIND       PRES   REMARKS
TOPEKA         PTCLDY   N/A N/A N/A S5        29.85S
MANHATTAN      CLOUDY    34  24  67 SW7       29.82R WCI  28
EMPORIA        CLOUDY    31  23  72 S13       29.87R WCI  21
CHANUTE        CLEAR     36  23  59 S15       29.95R WCI  27
WICHITA        CLOUDY    32  25  75 S12       29.88R WCI  23
OMAHA          CLOUDY    32  20  61 SE5       29.77R WCI  27
LINCOLN        CLOUDY    29  19  66 CALM      29.79R
FALLS CITY     CLOUDY    30  22  72 SE3       29.80R
LAMONI         CLOUDY    32  24  72 S6        29.80R WCI  26
DES MOINES     PTCLDY    35  24  64 SW8       29.78R WCI  29

$$




USA.gov is the U.S. government's official web portal to all federal, state and local government web resources and services.